RH
70 71 68 65 63 66 65 56 51 43 33 32 33 37 46 50 47 55 67 77 80 76 83 82 78 71 69 73 68 69 70 74 74 69 80 79 66 60 59 60 57 54 52 51 54 58 56 51 49 50 53 54 54 53 48 40 37 32 31 34 32 31 32 31 32 29 27 27 27 26 26 25 24 25 24 22 21 20 20 19 19 18 18 18 18 17 16 16 15 15 13 12 9 8 11 11 10
79 81 77 69 65 71 64 50 44 37 32 28 22 20 20 25 32 45 54 65 73 72 80 78 67 58 59 70 63 60 64 63 61 70 79 67 58 56 57 57 52 49 46 46 49 53 53 50 48 48 49 51 54 54 48 40 38 35 31 32 30 29 30 30 32 31 30 28 28 26 26 26 25 26 24 24 23 22 22 21 21 20 21 20 20 19 18 17 15 14 13 12 9 8 14 15 12
83 85 84 77 71 72 62 52 47 38 35 28 19 20 20 17 22 41 52 58 68 70 71 69 59 46 47 57 52 50 54 51 50 68 72 51 52 57 57 54 46 42 39 41 44 49 54 52 48 46 46 49 53 52 47 43 39 35 32 29 28 27 28 30 30 28 27 27 27 27 27 28 27 27 26 25 25 24 23 22 23 22 23 22 22 21 20 19 17 16 12 11 11 9 13 14 12
85 86 84 79 76 73 63 56 50 38 41 43 30 25 24 18 14 27 42 45 52 63 65 59 50 35 39 48 46 47 49 47 42 55 64 49 50 56 54 50 43 39 37 38 42 47 55 56 48 43 44 47 49 46 43 43 37 32 29 28 27 27 28 32 32 28 27 27 27 28 28 29 28 28 28 29 30 27 25 24 24 25 25 25 25 22 19 18 18 18 14 11 10 9 12 14 16
87 85 82 78 77 75 66 57 55 49 54 62 46 31 28 24 14 9 20 27 27 42 49 46 38 25 32 40 39 44 48 48 39 40 53 51 50 53 49 47 44 40 38 39 41 43 48 49 44 39 39 40 41 39 36 35 31 27 26 25 26 26 28 31 32 30 30 30 30 30 31 31 31 32 33 36 36 32 29 27 26 27 27 27 27 25 21 19 17 18 18 14 9 8 13 18 22
91 87 81 75 72 71 66 56 59 56 44 39 31 25 26 30 24 9 10 16 18 26 30 32 28 21 28 33 34 39 42 46 42 37 44 50 51 48 43 44 42 37 38 39 39 39 41 40 38 36 34 34 34 34 31 29 27 26 25 25 26 27 29 32 32 32 33 33 34 34 35 36 37 38 39 40 41 38 35 32 31 29 27 27 27 27 25 23 19 18 18 17 11 8 12 22 28
87 84 77 71 65 68 70 52 46 47 38 37 35 27 22 27 30 20 11 7 13 21 21 24 23 24 27 29 33 30 33 46 48 37 35 46 47 42 40 40 38 34 33 34 34 34 35 35 34 31 29 28 27 28 26 24 25 24 24 25 27 28 30 32 33 33 34 35 36 37 37 38 40 40 40 41 41 42 40 38 36 34 32 30 28 27 26 25 24 21 18 17 15 11 10 21 30
75 70 71 71 66 68 65 47 49 60 60 61 52 40 33 30 28 25 21 14 13 13 13 17 22 31 29 30 33 19 26 44 42 31 31 44 46 44 40 34 32 29 27 27 28 28 29 30 30 29 27 25 22 23 22 20 24 26 26 26 29 31 31 32 33 32 34 36 35 36 36 37 38 39 39 40 42 42 41 39 38 37 37 36 33 29 27 25 25 23 20 17 17 15 11 16 28
77 73 67 64 67 75 66 46 49 53 46 41 35 37 43 39 34 32 29 26 22 16 15 17 20 29 26 31 36 22 25 33 29 26 32 45 51 49 38 27 25 24 24 23 23 24 24 25 27 28 26 25 22 22 22 22 26 29 29 29 31 31 30 30 31 31 33 35 34 33 33 33 34 36 39 40 41 42 41 40 40 40 39 39 38 36 34 30 27 24 22 19 17 17 16 14 21
86 85 70 65 73 77 72 57 43 36 29 24 24 28 35 39 44 47 37 34 34 28 27 22 17 17 14 18 27 27 29 28 25 24 26 37 43 42 33 25 24 20 22 22 21 22 22 23 24 24 22 22 23 23 23 23 25 27 28 29 29 28 27 27 28 30 31 31 30 30 29 31 33 36 38 40 42 42 42 42 42 42 42 42 42 41 39 38 35 31 27 23 19 17 18 17 19
92 83 72 75 82 77 69 65 50 36 29 24 26 25 25 31 43 46 33 32 34 28 26 21 16 14 11 9 14 23 28 24 18 15 16 23 27 30 29 23 19 17 19 21 22 22 22 22 22 23 23 22 23 23 22 23 23 24 26 26 24 25 27 28 27 27 27 27 28 30 33 36 40 43 42 42 47 47 44 43 43 43 43 43 44 44 43 44 44 42 38 33 28 21 18 19 19
86 78 80 81 84 85 75 69 54 38 42 39 32 29 24 23 33 38 27 27 28 24 21 19 21 17 12 10 10 16 19 14 9 9 12 18 23 25 23 16 13 14 17 20 21 22 24 23 23 25 24 25 25 21 21 21 20 20 21 21 20 22 26 28 27 26 25 26 27 32 40 46 48 49 48 49 53 56 51 46 45 43 41 42 41 41 41 43 44 45 45 43 42 37 29 23 20
71 69 81 81 78 81 79 78 59 45 57 48 28 30 33 27 31 40 33 27 24 21 19 14 14 10 10 13 10 9 8 6 6 7 11 16 20 20 16 14 12 13 16 18 19 19 23 24 26 27 24 24 21 20 20 19 18 18 18 19 21 23 25 27 26 26 25 25 26 31 42 50 52 50 49 51 54 58 58 53 51 49 45 43 42 42 43 45 46 44 43 43 44 46 44 37 29
64 58 65 75 77 69 71 83 70 52 52 40 32 42 48 43 40 42 36 26 23 23 19 10 7 8 13 15 8 5 6 5 7 7 11 14 14 13 13 13 13 14 15 15 17 18 19 21 25 27 27 26 23 24 23 21 22 21 22 23 26 28 29 29 27 26 26 26 27 30 37 44 49 54 54 54 58 62 64 62 58 55 51 48 49 52 55 58 59 55 48 44 42 43 45 46 44
62 54 56 75 86 72 67 80 74 51 39 36 45 54 53 46 37 34 33 31 30 25 22 14 8 10 12 11 6 6 8 8 9 9 12 14 13 14 13 14 16 16 16 16 17 17 17 19 23 28 32 33 31 30 27 25 24 23 25 26 27 29 31 33 31 30 33 37 37 36 37 37 42 54 60 60 63 66 66 64 61 57 54 52 53 56 59 63 65 65 63 57 52 48 45 44 45
63 62 69 80 86 76 70 75 76 57 38 38 44 46 47 42 30 23 28 37 36 32 40 35 17 10 9 7 7 8 11 13 15 16 17 18 17 17 15 16 18 18 18 17 16 14 19 27 33 37 40 38 32 33 32 29 29 28 30 31 31 33 38 40 37 34 39 43 42 38 36 35 38 48 57 58 58 61 62 61 60 57 54 52 52 54 54 53 54 57 61 62 60 57 54 50 45
62 70 78 81 82 79 71 69 80 67 40 41 40 32 30 32 28 21 29 41 42 36 39 44 29 14 7 5 7 8 12 14 19 23 24 24 24 23 20 18 20 21 19 17 18 20 25 32 37 40 39 36 33 35 33 31 37 40 41 39 36 36 38 40 36 33 35 38 37 34 30 29 35 42 48 50 50 57 63 62 58 54 51 47 45 48 46 41 41 43 46 49 52 55 58 60 55
61 67 71 73 76 76 69 66 74 62 43 43 34 21 17 17 18 21 31 38 40 35 36 46 33 11 5 7 8 8 11 13 20 27 28 28 30 29 25 24 24 23 20 17 19 20 21 22 26 31 32 34 36 36 32 32 39 44 45 42 36 32 31 33 34 34 34 34 33 34 28 24 32 37 36 37 42 51 59 59 55 51 47 43 41 40 39 37 36 36 38 37 38 42 48 56 59
61 63 66 66 67 68 65 65 58 48 54 51 30 21 19 15 18 25 29 31 34 36 45 50 24 4 5 7 8 8 12 15 19 24 26 28 32 32 30 34 32 26 23 20 19 22 23 24 27 32 34 37 38 39 38 38 39 40 40 39 36 31 30 31 31 36 39 34 29 31 30 26 31 33 29 27 33 42 47 47 45 42 40 42 45 43 40 39 35 34 37 34 31 31 33 40 46
62 63 64 63 63 60 59 73 66 46 49 44 29 24 23 25 29 35 31 30 36 31 35 35 12 4 6 4 8 9 11 15 18 19 21 25 29 32 34 37 37 31 27 26 28 32 35 37 37 37 39 41 38 38 41 40 38 39 36 35 35 31 31 30 32 42 45 38 30 29 25 21 23 25 26 25 27 33 34 32 31 32 33 37 43 45 42 38 32 30 32 32 31 29 29 29 31
65 66 63 60 63 57 50 73 76 48 36 32 30 27 27 34 38 46 46 38 40 30 25 24 9 5 5 5 8 8 10 12 15 16 17 19 24 31 35 35 37 37 36 37 37 37 37 37 37 37 36 36 34 34 38 37 34 35 33 30 29 27 26 25 31 40 39 37 38 36 30 26 22 20 23 26 27 26 24 21 20 23 26 29 35 40 42 42 40 36 36 37 35 33 31 29 28
61 65 61 59 63 62 50 63 65 39 31 31 31 29 27 33 37 43 49 48 46 34 25 21 9 4 5 6 7 7 9 10 12 15 16 16 19 28 33 35 40 43 44 43 41 38 35 32 33 34 33 31 30 28 29 29 27 27 25 21 19 19 19 20 23 26 25 30 41 44 40 35 29 23 23 26 28 27 24 18 15 18 23 29 35 40 45 49 51 49 46 45 43 40 35 34 38
60 65 62 60 61 63 51 51 50 34 39 43 32 25 20 24 30 30 40 51 41 28 24 17 7 5 5 5 6 8 9 9 11 13 15 16 18 23 30 35 41 44 42 39 38 37 33 29 30 30 28 26 23 20 17 16 14 14 13 11 13 16 17 18 19 21 22 26 33 37 36 35 33 31 30 29 31 32 30 23 19 21 25 32 37 41 48 53 55 52 48 48 52 52 44 43 50
61 69 67 66 61 54 36 31 42 43 50 52 32 19 21 23 25 24 32 40 27 20 21 13 7 5 4 5 6 8 9 10 10 11 15 16 19 21 27 32 37 38 35 33 32 31 30 27 25 23 20 18 15 13 10 9 7 6 8 8 8 13 16 18 19 21 24 26 28 29 29 32 36 40 42 41 40 41 41 38 36 38 43 48 48 45 44 47 47 44 41 45 56 62 56 54 57
61 69 63 58 51 42 33 37 50 54 49 43 30 19 21 23 23 23 21 22 22 21 17 9 7 5 4 5 5 7 8 9 9 10 12 12 16 18 21 25 27 28 26 26 27 26 26 23 20 18 16 14 11 9 7 6 5 5 6 7 8 11 15 21 25 26 28 29 28 27 29 31 38 48 51 47 45 43 43 46 48 54 60 64 63 56 49 45 44 43 45 49 55 62 63 64 67
61 67 60 48 41 38 47 57 50 45 39 28 25 19 16 15 19 25 21 18 22 20 14 9 7 5 6 5 5 7 7 9 10 10 11 10 11 12 15 17 18 19 20 21 22 22 22 21 19 15 12 10 8 7 5 4 4 6 8 11 14 15 15 18 22 27 30 31 25 22 26 33 41 50 46 36 31 27 25 26 29 34 40 44 46 48 48 46 44 44 44 47 53 55 58 63 72
57 61 65 52 44 44 50 56 39 28 28 19 18 17 13 12 14 21 22 19 19 16 13 8 6 6 7 6 5 6 7 9 10 10 11 11 10 11 12 15 16 16 17 18 18 17 18 19 17 12 8 5 5 4 4 4 5 9 13 16 20 21 20 18 16 19 22 24 21 16 19 28 37 39 31 21 15 11 9 9 8 9 11 13 15 18 22 25 26 25 25 37 54 60 57 59 67
52 58 62 46 47 57 46 40 30 22 27 22 18 15 10 12 15 16 16 17 17 17 14 7 6 7 5 7 6 6 8 9 10 11 11 11 12 12 12 14 17 15 14 14 13 12 13 14 12 9 6 4 3 4 5 7 8 12 17 18 19 20 21 21 18 16 15 15 14 14 16 21 27 27 20 13 8 6 4 4 4 4 4 4 4 4 6 8 9 9 11 24 45 58 60 61 67
55 58 50 40 58 73 56 41 33 26 25 20 16 13 9 11 14 13 12 16 17 15 15 10 8 8 6 6 6 6 7 7 10 11 11 12 13 12 11 11 12 12 12 10 8 8 8 8 7 5 4 4 4 6 8 9 9 12 15 16 14 14 16 19 20 18 17 15 10 10 15 19 20 18 13 10 9 7 5 4 4 4 4 4 3 3 3 4 4 4 5 10 19 29 37 42 45
60 54 46 54 72 77 67 57 50 40 24 21 29 23 16 15 12 12 11 14 20 18 16 15 11 7 5 5 5 5 5 5 7 7 8 8 9 9 7 8 8 8 8 8 6 5 4 5 6 5 4 5 6 7 8 8 8 10 12 12 11 11 13 14 14 14 16 17 16 13 14 16 13 9 7 7 8 7 5 4 4 4 4 4 3 3 3 3 3 3 3 3 4 7 9 12 14
64 57 56 75 84 78 75 63 57 63 42 27 37 34 36 37 21 16 14 13 20 21 17 18 16 9 6 7 6 5 4 5 5 5 5 4 5 5 4 6 6 6 7 7 6 5 5 5 5 7 7 7 7 7 7 6 8 13 14 11 9 12 13 10 8 8 9 14 24 25 18 12 7 4 5 5 6 5 5 4 4 4 4 4 4 3 3 3 3 2 3 3 2 3 3 3 3
72 66 62 83 92 78 83 71 54 71 67 43 40 44 56 57 37 27 24 22 24 23 21 20 16 9 7 9 9 7 5 4 5 4 5 4 5 5 6 7 6 8 9 6 6 7 7 6 5 6 7 6 6 6 6 4 7 13 15 11 9 11 10 7 5 7 6 7 16 21 16 10 4 4 5 4 5 5 5 5 5 5 4 4 4 4 4 4 3 3 3 4 3 3 4 4 3
71 68 63 82 89 71 84 86 58 60 69 61 54 53 60 56 44 35 28 28 29 30 33 31 25 15 9 12 12 10 7 6 6 5 5 6 5 7 7 8 7 7 8 6 5 6 6 5 5 5 5 6 6 6 5 5 7 10 13 12 10 9 7 5 5 6 5 4 5 7 8 6 4 4 5 5 5 5 5 5 5 5 5 5 5 5 5 5 5 5 4 4 5 5 5 5 5
62 65 70 83 88 75 85 90 69 61 70 77 70 58 57 54 45 40 33 30 29 33 39 41 41 28 15 16 16 14 14 12 9 6 7 6 6 8 7 7 7 6 6 6 5 5 5 5 5 5 5 6 6 6 6 7 9 9 10 9 8 7 6 5 6 5 5 5 5 4 5 5 5 5 6 6 6 6 6 6 6 6 6 6 6 6 6 6 6 5 6 6 6 6 6 6 6
61 67 73 77 85 84 86 87 80 76 78 83 76 60 58 61 53 45 44 37 28 29 31 36 46 38 23 20 19 18 18 18 17 12 10 9 6 7 8 7 7 6 6 6 6 6 5 5 6 5 6 6 6 6 6 7 8 8 8 7 6 6 6 5 6 6 6 6 5 5 5 5 6 6 6 7 7 7 7 6 7 7 7 7 7 7 6 6 6 6 6 6 6 7 7 7 7
61 68 70 67 75 77 76 84 88 84 76 66 64 65 62 69 65 49 49 50 39 31 27 33 44 43 35 25 19 18 19 20 21 17 11 11 11 7 6 7 7 6 6 6 6 6 6 6 6 6 7 7 6 6 6 6 6 6 7 7 6 6 6 6 6 6 6 6 6 6 6 6 6 7 7 7 7 7 7 7 7 7 7 7 7 7 6 6 6 6 6 6 6 6 6 7 6
62 63 64 63 66 68 67 76 82 81 78 59 55 68 62 63 67 54 52 55 51 44 34 35 41 43 42 33 23 20 18 14 14 16 13 11 12 9 6 6 7 7 6 7 7 6 7 6 6 7 7 7 7 6 6 6 7 7 7 7 7 7 7 7 6 6 6 6 7 6 6 7 6 7 8 8 8 8 8 8 8 7 7 7 7 6 6 6 6 6 6 6 6 6 6 6 6
68 59 60 61 58 64 71 74 71 68 74 63 53 64 62 58 65 62 58 54 53 53 44 40 42 44 45 40 33 26 16 10 9 13 13 12 12 11 9 7 6 7 7 7 7 7 7 7 7 7 7 7 7 7 7 7 7 7 8 8 8 8 8 8 7 6 6 7 7 7 7 7 7 7 8 8 8 9 9 9 9 8 8 7 7 7 6 6 6 6 6 6 5 5 5 5 5
69 61 60 60 54 58 69 73 66 59 66 67 58 64 66 61 63 64 63 60 57 55 50 45 43 49 53 45 38 31 19 11 9 9 9 11 13 10 9 9 7 8 8 7 7 7 7 7 7 7 7 8 7 8 8 8 8 8 8 9 9 9 9 9 8 7 7 7 7 7 7 7 8 8 8 8 9 9 9 9 9 9 9 8 7 7 7 7 7 6 6 6 6 5 5 5 5
59 59 59 58 52 50 59 68 67 60 61 64 62 63 59 56 66 70 67 68 67 63 60 54 47 48 51 45 39 35 28 17 9 7 7 8 10 10 9 8 8 8 8 8 8 7 7 7 7 8 8 8 8 9 9 9 9 9 9 9 9 9 9 9 9 8 7 8 8 8 8 8 8 8 8 8 8 9 9 9 10 10 10 9 8 8 7 7 7 7 6 6 6 6 5 4 4
56 55 58 54 47 46 53 65 68 63 60 61 64 65 52 44 57 65 64 69 74 74 70 66 63 58 50 43 39 37 34 27 14 7 6 7 8 8 8 8 8 9 8 7 7 7 7 8 8 8 8 8 9 9 9 9 9 9 9 9 9 9 9 9 9 9 8 9 9 9 9 9 8 8 9 9 8 9 9 9 10 10 10 10 10 8 8 8 7 7 7 7 6 6 6 5 4
57 55 54 47 43 48 52 57 62 60 56 54 58 63 56 48 50 54 59 66 70 71 65 59 66 70 61 48 43 39 35 32 24 12 7 7 7 7 8 8 8 8 9 8 8 8 8 8 8 8 8 8 9 9 9 9 9 9 8 8 9 9 9 9 9 9 9 9 9 10 9 9 9 9 9 9 9 9 9 9 9 10 11 11 11 10 9 9 8 8 8 7 7 7 6 6 5
55 51 48 44 44 49 50 50 54 53 50 45 43 49 53 56 56 54 61 68 70 68 60 53 59 72 76 66 55 48 38 32 28 19 12 8 6 6 6 7 8 8 9 9 9 8 8 8 8 8 8 8 8 8 8 8 9 8 8 8 8 8 8 9 9 9 8 8 9 9 9 10 10 10 10 9 9 9 9 9 10 10 10 11 11 11 11 10 9 9 9 8 8 8 8 7 6
49 41 39 41 42 45 44 44 48 48 47 42 39 39 43 53 59 60 66 71 71 67 62 64 65 69 79 79 69 59 47 37 30 24 18 11 6 6 7 8 8 8 8 9 11 10 9 9 8 8 9 8 8 8 8 8 8 7 7 7 7 8 7 7 8 8 8 8 8 8 8 9 10 10 10 10 10 10 9 10 10 10 10 11 11 12 12 12 11 10 10 10 9 9 9 9 8
35 32 36 39 41 42 39 43 55 59 55 46 40 38 43 56 63 64 70 69 66 68 70 76 73 64 69 74 71 65 53 43 38 30 20 13 8 6 7 9 9 10 11 9 9 10 9 9 9 9 9 9 9 8 8 8 8 8 7 7 7 7 7 7 7 7 7 7 7 8 8 8 9 10 10 10 11 10 10 10 10 10 10 11 11 12 12 12 12 12 11 11 11 11 11 10 10
28 35 39 39 41 41 38 43 54 58 56 47 41 45 53 62 65 67 69 63 64 73 75 78 77 70 69 70 67 61 51 47 47 38 24 15 11 8 8 10 11 12 14 11 9 9 9 9 9 9 8 9 9 8 9 9 8 8 7 7 7 7 7 7 7 7 7 7 7 7 7 8 8 9 9 10 11 11 11 11 11 11 11 11 11 11 12 12 12 13 13 12 12 12 12 11 11
31 40 39 38 41 41 38 39 41 43 47 45 46 57 62 64 66 67 66 63 69 77 73 71 75 76 73 67 60 53 47 51 53 43 31 20 12 9 10 13 14 13 13 14 12 10 9 10 9 9 9 9 9 10 9 9 9 9 9 8 8 7 7 7 7 7 7 7 7 7 7 7 8 8 9 9 10 11 12 12 12 12 12 12 12 12 12 12 12 13 13 13 13 12 12 12 12
33 41 38 40 44 43 39 37 36 36 40 43 50 58 60 60 60 59 60 63 69 73 68 63 68 74 74 65 59 57 57 58 53 45 40 31 21 14 12 15 16 14 14 16 15 12 12 12 12 11 12 11 11 12 13 13 11 9 9 9 8 8 8 7 7 7 7 8 7 8 7 7 7 8 8 8 10 11 12 13 13 14 14 13 13 13 13 13 12 13 13 13 13 13 12 12 12
33 40 40 43 47 48 44 37 35 35 35 41 46 48 51 58 63 63 66 65 64 67 65 61 60 60 59 56 55 57 60 57 47 40 40 36 31 26 21 17 17 16 17 18 17 17 17 18 19 18 18 18 17 17 17 19 18 11 8 9 9 8 8 8 7 7 8 8 8 8 7 7 7 7 8 8 9 10 12 14 14 15 15 15 15 14 14 13 13 13 13 13 13 13 12 12 12
35 40 38 43 46 48 48 41 37 37 34 34 37 42 49 57 61 67 69 63 61 66 68 67 64 52 42 45 53 57 57 51 41 38 42 41 35 31 24 18 17 19 19 18 19 22 24 24 24 24 25 25 26 27 24 22 22 16 8 7 8 9 9 8 8 8 8 8 8 8 7 7 6 7 8 8 9 11 13 14 15 16 16 16 16 16 15 14 14 14 13 13 12 12 12 12 13
31 36 35 42 49 51 53 48 43 45 43 40 43 49 51 50 52 58 64 62 63 69 70 67 63 54 43 42 50 56 51 40 30 28 36 43 42 36 28 22 21 22 20 18 20 24 26 24 22 23 25 25 28 35 33 24 19 18 12 8 8 8 9 8 8 8 8 9 8 8 7 7 7 7 8 8 9 11 13 15 16 16 16 17 17 17 16 16 15 14 13 13 13 13 13 13 14
34 39 39 41 47 51 56 54 51 55 58 56 57 58 55 56 57 58 60 61 63 67 67 61 58 59 56 45 38 38 35 28 22 19 25 40 48 46 41 35 28 24 20 18 17 17 17 15 15 17 21 27 33 35 29 20 19 22 16 8 7 9 9 9 9 9 9 9 8 8 7 7 7 8 8 8 10 12 14 16 16 17 17 17 17 17 17 17 16 15 14 14 14 14 14 14 15
39 41 40 35 38 48 55 56 53 54 57 57 59 60 58 60 61 57 55 55 56 59 59 59 59 61 63 55 42 33 29 24 20 18 18 28 44 53 52 43 30 21 17 14 13 13 13 14 17 21 28 36 33 22 14 15 24 28 19 9 8 9 9 9 10 9 9 8 8 8 8 7 8 8 8 9 12 14 15 16 16 17 17 18 18 18 18 17 17 16 16 15 15 15 15 15 16
40 41 42 36 37 49 55 54 53 54 54 53 54 56 56 58 59 57 57 56 56 55 55 58 61 62 63 62 53 44 37 29 20 16 10 13 33 50 51 45 33 22 15 11 11 14 16 19 23 28 36 36 26 13 9 12 18 20 15 9 7 8 10 10 9 8 8 8 8 8 8 8 8 8 9 11 13 15 16 17 17 17 17 18 18 18 18 18 18 18 17 17 16 16 16 16 16
41 44 48 41 38 48 53 51 52 55 54 53 54 56 56 57 58 58 59 60 60 60 61 63 62 63 63 58 51 47 44 37 27 18 11 15 34 46 48 47 36 22 14 10 12 16 17 19 21 23 26 25 18 12 10 10 9 9 9 8 8 8 9 8 8 10 10 9 9 9 9 9 8 9 10 11 13 15 16 17 17 17 18 18 18 18 18 18 18 18 17 17 17 16 17 17 17
45 48 50 45 41 45 48 46 47 47 48 51 54 57 56 54 56 57 57 59 61 63 66 64 58 57 56 49 45 43 38 32 27 18 12 19 35 43 43 40 28 16 13 12 12 14 13 13 13 13 12 11 11 11 12 12 10 9 8 7 8 8 10 15 19 17 13 9 9 9 10 10 9 9 10 11 14 15 17 17 17 18 18 18 19 19 19 19 19 18 18 17 17 16 17 18 18
43 47 48 47 45 44 43 44 45 45 44 46 49 55 60 60 62 63 60 60 62 62 62 62 58 58 57 51 48 45 37 30 24 17 10 12 24 36 38 32 22 15 13 11 10 10 11 11 10 10 9 8 10 12 15 14 11 13 16 12 8 6 15 29 29 16 9 9 9 9 9 10 11 11 12 14 16 17 18 18 18 19 19 19 20 19 19 20 19 18 17 16 16 17 18 19 19
35 41 46 48 45 43 43 44 47 46 44 44 50 58 63 64 66 67 65 62 62 60 60 61 62 62 61 57 53 48 44 40 31 20 16 13 17 29 36 33 25 16 12 11 11 10 10 10 10 10 8 9 10 12 15 14 12 21 26 17 7 6 20 36 29 12 9 10 10 9 9 10 12 12 15 17 18 19 19 20 21 21 20 20 21 21 20 20 19 18 17 16 16 17 18 19 19
Wind_Speed
20 19 18 18 18 19 18 17 18 18 19 19 17 16 15 14 10 9 8 8 9 11 13 11 10 10 11 11 13 13 12 17 16 16 17 15 16 15 17 19 21 21 19 18 17 15 15 15 15 14 15 15 14 13 13 11 9 7 7 7 6 6 6 5 5 5 5 5 6 6 5 5 6 6 6 6 5 5 5 4 4 4 4 4 4 3 2 2 1 1 1 1 0 2 4 5 5
18 17 16 16 16 17 16 16 20 18 16 16 17 17 16 15 11 9 8 8 9 11 12 10 8 9 12 11 12 14 13 15 16 18 17 14 15 15 17 19 20 20 18 17 15 15 13 13 14 14 14 14 13 12 11 11 9 7 6 6 5 4 5 5 5 5 5 6 6 6 5 6 6 6 5 5 4 4 4 4 4 4 4 4 3 3 3 2 2 1 0 1 1 2 4 4 4
17 17 15 14 14 15 15 17 19 16 15 15 16 16 15 14 12 10 8 8 10 12 13 10 8 9 12 12 12 15 14 13 17 19 13 11 15 17 18 18 19 19 17 16 14 14 13 12 12 13 13 13 12 11 10 10 9 7 6 5 5 4 4 4 4 4 5 5 5 5 5 5 5 5 4 4 3 3 3 3 3 4 4 4 3 3 3 3 3 2 1 0 1 2 3 4 3
16 15 14 14 14 13 14 18 17 13 14 15 15 15 13 12 11 11 9 9 11 12 12 11 8 9 12 12 13 15 13 12 15 19 12 9 15 17 17 17 17 17 16 15 14 13 12 12 11 11 11 11 10 9 8 8 7 6 5 5 4 4 3 3 3 4 4 4 4 4 4 4 4 4 3 3 3 3 3 3 3 3 4 4 4 4 4 4 4 4 2 1 0 1 2 4 3
16 14 14 15 14 14 14 17 16 12 14 14 13 13 11 11 11 10 9 9 11 12 11 11 9 9 13 11 14 16 14 13 13 17 14 9 14 17 15 15 15 15 15 14 13 12 11 11 11 10 10 9 8 7 7 6 6 6 5 4 4 3 3 3 3 3 3 3 3 3 3 3 2 2 2 3 3 3 3 3 3 3 4 4 4 4 5 5 5 5 4 2 1 1 2 3 4
18 15 14 15 15 15 16 16 13 11 13 13 11 11 9 9 10 9 9 9 10 11 11 11 10 10 11 10 13 14 14 15 12 14 16 11 13 16 14 14 13 13 13 13 12 11 10 10 10 9 9 8 8 7 6 6 5 6 6 4 4 3 2 2 2 2 2 1 2 2 2 1 1 1 1 1 2 2 3 3 3 4 4 4 4 4 5 5 6 6 5 3 1 1 1 3 4
16 14 13 14 15 16 17 14 12 12 12 11 10 9 9 8 8 8 9 8 9 9 9 10 10 11 9 11 13 11 13 16 14 13 15 15 15 15 14 12 12 11 11 11 11 10 10 10 9 9 8 7 7 7 6 6 6 7 6 4 3 2 1 1 1 1 1 1 1 1 0 0 1 1 2 3 3 3 3 3 3 4 4 4 5 5 5 5 6 6 6 5 3 1 2 3 4
10 11 13 14 16 16 15 12 12 12 11 9 8 8 7 7 7 7 7 7 8 7 8 8 9 11 7 10 13 10 13 16 15 13 14 17 16 15 13 12 12 11 10 9 9 9 9 9 9 8 8 7 7 7 6 7 7 7 6 4 2 2 2 2 2 2 2 2 2 2 2 3 3 4 5 6 6 6 6 6 6 6 5 5 5 5 5 6 6 6 6 6 5 2 2 3 4
10 11 12 14 17 15 12 11 12 11 10 9 8 7 6 6 6 6 6 6 7 5 6 5 6 9 8 10 13 11 14 15 16 14 14 16 15 13 12 12 12 12 10 9 9 8 8 9 9 8 8 8 7 7 7 7 7 7 5 3 2 2 2 3 3 3 4 3 3 3 4 5 5 6 6 7 7 8 8 8 8 8 7 7 7 6 6 7 7 7 6 6 6 5 4 4 4
11 11 11 14 16 13 11 11 12 11 10 10 8 6 6 5 5 5 5 4 6 4 3 4 4 8 9 10 11 12 14 14 15 13 13 14 13 12 12 12 12 12 11 9 9 8 8 8 8 8 7 7 7 8 8 7 7 6 4 3 2 2 2 2 3 4 4 5 5 5 6 6 7 7 7 7 8 8 8 8 8 8 8 8 9 9 8 8 8 8 8 8 7 7 6 6 6
9 10 11 14 14 11 12 11 11 11 10 10 9 7 6 5 5 4 5 4 6 5 3 5 5 7 8 10 10 11 13 12 12 12 11 12 12 12 12 12 11 11 11 10 10 9 8 8 8 7 7 7 8 8 8 7 6 5 4 2 2 3 3 3 3 4 5 5 6 7 8 8 8 8 8 8 8 8 8 9 9 9 9 9 9 10 10 9 9 9 9 9 9 8 8 7 8
9 12 13 12 13 12 12 11 10 10 10 10 9 9 7 5 5 5 6 6 7 6 5 6 4 5 8 8 9 11 12 11 11 11 11 12 12 13 13 12 11 10 11 11 11 10 9 9 8 7 7 8 7 7 7 7 6 5 4 3 4 4 4 4 5 5 6 6 6 7 9 8 8 9 9 9 8 8 8 9 10 10 10 10 10 10 10 10 9 9 9 9 9 8 8 8 9
10 15 17 16 17 16 12 10 9 8 8 8 8 9 8 6 6 6 6 6 7 7 7 6 4 6 9 8 9 12 12 12 12 11 11 12 13 13 12 11 10 11 12 11 10 9 9 9 7 7 7 8 7 7 7 7 6 6 5 5 6 6 5 5 6 6 7 7 8 9 10 8 8 9 9 8 8 8 7 8 9 9 9 10 10 10 10 11 10 10 9 9 8 8 7 8 9
9 14 19 20 23 23 15 9 8 7 6 7 8 8 8 7 6 6 6 7 7 8 8 8 6 8 10 9 10 12 14 13 13 13 12 12 12 12 11 10 10 11 12 11 11 10 10 9 7 7 7 7 8 8 8 7 6 5 5 6 6 6 5 6 6 7 8 9 9 10 11 10 9 8 8 7 7 7 6 7 8 8 8 8 9 9 10 10 11 10 10 10 9 8 8 8 9
16 17 21 21 19 23 18 9 6 5 5 6 6 6 6 7 7 7 7 7 7 8 8 9 9 8 9 10 11 13 15 15 15 15 14 13 12 11 10 10 11 11 11 11 11 10 10 9 8 8 8 8 9 9 8 7 6 5 6 6 5 6 6 7 8 9 10 10 10 11 11 11 8 6 5 5 5 6 5 5 7 8 8 8 8 9 9 10 10 10 10 11 10 9 9 9 10
25 25 23 16 10 17 15 6 6 6 4 4 5 5 5 6 6 6 7 7 5 5 6 7 8 7 7 10 11 13 15 15 16 16 15 14 12 12 11 10 11 11 11 10 9 9 9 10 10 10 10 9 8 8 8 7 6 6 7 7 7 7 8 8 10 11 11 10 10 10 10 10 8 5 4 5 6 6 5 5 7 8 8 9 9 9 10 10 11 11 11 11 11 10 10 10 11
27 25 18 9 5 12 13 9 8 7 3 2 3 3 4 5 5 5 5 5 4 4 5 5 6 6 6 9 11 13 14 14 15 15 15 14 13 13 12 12 11 11 11 10 10 10 10 10 10 10 10 9 9 9 8 8 8 7 7 8 9 9 9 9 9 10 10 9 9 9 9 8 7 6 6 6 6 6 5 5 5 6 8 10 11 11 12 12 12 13 13 14 14 13 12 11 11
26 22 19 14 3 11 16 14 11 9 3 1 2 2 2 4 4 3 4 4 3 3 3 4 5 5 6 8 10 12 13 13 14 14 14 14 13 13 13 13 12 12 11 12 12 12 11 11 10 10 10 10 11 10 10 10 10 8 8 8 9 9 9 8 8 9 9 9 9 10 9 8 7 7 8 7 7 7 6 6 7 9 11 12 12 12 13 13 14 15 16 16 17 16 15 14 13
23 19 17 11 2 14 19 14 9 6 2 3 3 1 1 3 3 2 2 3 2 2 3 3 4 4 4 7 10 11 12 13 13 12 12 13 13 12 13 13 12 12 12 13 14 14 14 13 13 13 12 12 11 11 11 11 10 9 8 8 8 8 8 7 7 8 9 9 9 9 9 9 9 9 9 8 8 9 8 9 11 13 14 14 14 13 14 15 16 16 17 17 18 19 18 17 17
18 17 9 6 7 13 16 8 1 1 0 3 3 1 3 3 2 2 2 2 1 1 3 3 2 2 3 6 9 10 11 12 12 12 12 11 11 11 11 11 11 12 13 13 14 15 15 14 14 13 12 11 11 10 10 10 9 9 8 7 7 8 8 7 7 9 9 10 9 10 10 10 10 11 10 9 9 10 10 11 12 14 14 15 15 15 17 17 17 16 16 17 18 19 19 18 19
14 12 8 11 8 8 9 8 3 1 2 5 2 2 3 1 2 2 1 2 3 2 2 2 2 2 3 5 8 9 10 11 11 11 11 11 10 9 10 10 11 11 12 13 13 13 12 12 12 11 11 10 9 9 9 8 8 9 8 7 8 8 9 8 9 10 11 11 11 11 12 12 11 11 11 11 11 11 12 12 13 14 15 16 16 17 18 18 17 17 16 17 17 18 18 18 18
4 5 13 16 10 7 9 8 6 6 5 5 2 3 3 2 3 4 3 3 4 4 3 4 3 2 3 5 6 8 9 10 10 11 10 10 9 8 8 9 10 10 11 11 10 10 9 9 10 9 9 9 8 7 8 8 8 9 8 8 9 10 10 10 11 11 11 12 11 11 12 11 11 11 11 12 12 13 14 14 14 15 16 17 18 18 18 18 17 18 18 18 18 18 17 17 16
3 7 11 13 15 15 13 5 4 8 4 3 2 3 3 2 2 4 5 4 3 4 5 4 3 2 2 4 6 7 7 8 8 9 9 9 8 7 7 8 8 9 9 9 9 8 7 7 8 8 8 8 8 7 7 8 9 10 10 10 10 11 11 12 12 12 11 11 11 11 11 11 12 12 12 13 14 15 15 15 14 14 15 16 17 17 18 17 17 17 17 18 18 18 17 16 15
4 9 10 9 16 14 9 4 3 5 2 1 4 3 3 2 2 2 4 3 1 2 4 4 3 2 1 2 4 5 5 6 7 8 8 8 8 7 7 7 7 7 7 7 6 6 6 5 6 6 7 7 8 8 8 9 10 10 11 11 11 11 12 11 11 11 11 11 11 12 12 12 13 14 13 13 14 15 15 15 14 14 14 14 15 15 14 15 15 15 16 17 18 17 17 17 17
7 10 7 5 12 8 3 3 2 3 3 1 3 4 4 2 3 3 2 1 1 1 3 2 2 1 1 2 3 4 4 4 4 5 6 6 8 7 7 6 6 6 5 5 4 5 4 4 5 5 6 7 7 8 9 9 10 11 11 12 12 12 11 11 11 11 11 11 11 11 11 11 11 12 12 12 13 14 14 15 14 14 13 13 13 12 12 13 14 16 17 18 19 18 17 17 17
12 11 13 12 9 5 3 4 4 3 2 0 2 3 3 2 2 3 2 1 1 2 1 1 2 1 1 1 2 2 3 4 3 3 3 4 5 6 7 6 6 6 4 3 3 3 3 3 4 5 6 6 7 8 8 9 10 11 12 13 13 12 11 10 10 10 10 10 11 11 11 10 10 10 11 12 13 14 14 15 15 14 14 13 13 13 12 13 14 16 18 19 20 20 18 17 17
13 13 18 15 8 3 6 6 3 2 0 2 2 2 1 2 3 3 2 1 1 2 2 2 3 2 2 2 2 2 2 3 2 2 2 2 3 3 5 4 4 4 3 2 2 2 2 3 4 5 6 7 7 8 9 10 10 12 12 13 12 12 11 10 10 10 10 11 12 12 12 11 10 10 12 13 14 15 16 16 17 17 16 15 15 14 14 15 15 16 16 17 17 17 17 17 18
13 15 15 11 5 4 5 3 2 2 1 2 1 1 2 0 3 4 3 2 1 2 2 3 4 3 2 3 3 3 2 2 1 1 1 1 1 1 1 2 1 1 2 2 2 2 3 3 4 5 6 7 8 9 10 10 10 11 11 12 12 11 11 11 11 11 12 13 13 13 12 12 11 12 13 14 14 15 16 17 18 18 18 17 16 15 15 15 16 16 16 17 15 14 13 14 17
17 16 14 6 6 9 4 4 1 2 2 3 3 3 4 2 1 3 4 4 2 1 2 4 4 4 3 3 4 4 3 3 2 1 1 2 2 2 2 0 1 2 2 2 2 3 3 3 4 5 6 8 8 9 10 10 10 10 11 11 12 12 12 11 11 12 12 13 14 13 13 13 13 13 14 15 15 15 16 16 17 18 18 19 18 17 16 15 16 15 15 16 16 14 13 13 14
15 10 10 6 10 14 10 5 2 3 3 4 3 0 1 1 2 1 2 3 5 3 1 2 4 4 4 4 4 4 4 3 3 2 2 2 2 2 1 1 1 2 2 2 2 3 3 4 5 6 7 8 8 8 8 9 9 10 11 11 12 12 13 12 12 13 13 13 13 13 13 13 13 14 15 15 16 16 16 17 17 17 18 19 19 19 19 18 17 17 16 15 15 15 15 14 14
15 7 9 8 8 11 9 4 2 4 5 8 7 2 3 3 3 2 1 1 4 5 3 2 2 3 5 5 4 4 4 4 3 3 3 3 2 2 2 2 1 1 2 2 3 3 4 5 5 6 7 6 7 7 8 8 9 10 11 12 12 13 13 13 14 15 15 14 12 11 11 12 13 14 15 15 16 17 17 18 18 18 18 19 19 20 20 20 19 19 18 17 17 16 16 16 16
19 15 11 11 9 8 7 5 3 3 6 9 9 4 3 2 3 3 3 2 3 4 3 3 1 2 4 4 3 4 5 4 4 3 3 3 3 3 2 2 2 1 2 2 3 3 4 4 5 5 5 6 6 7 8 9 10 10 11 12 13 13 13 13 14 14 15 15 13 11 11 11 13 14 15 15 16 17 18 19 19 19 19 19 19 19 20 20 20 20 20 20 20 19 19 19 19
20 20 13 12 12 8 6 7 3 3 4 6 9 6 1 0 2 3 3 3 4 4 2 2 2 1 2 3 2 4 5 4 4 3 2 3 2 2 2 2 2 2 2 2 2 3 3 3 4 4 5 6 7 7 8 9 9 10 11 12 12 12 12 12 13 13 13 13 13 12 11 12 13 14 15 15 16 17 17 18 19 20 20 20 20 20 20 20 20 21 21 21 21 21 21 22 22
16 17 12 11 13 10 6 6 5 3 1 2 7 6 0 1 2 2 2 3 3 3 3 3 2 2 1 1 2 3 4 4 4 3 2 2 2 2 2 2 2 2 2 3 3 3 3 4 4 5 5 6 7 7 8 8 9 9 10 11 11 11 12 12 12 12 12 12 12 12 12 12 12 13 13 14 15 16 17 17 18 19 20 21 21 20 20 20 20 21 21 21 21 21 22 22 23
12 10 10 10 11 10 6 5 7 6 5 7 9 10 6 3 5 4 3 3 4 4 4 3 3 3 3 1 0 2 3 3 3 3 2 2 2 2 1 1 2 2 3 3 3 3 3 4 4 5 5 6 7 8 8 8 9 10 10 10 11 11 12 12 12 12 12 12 11 11 11 12 12 12 12 13 14 15 16 17 18 19 19 20 21 21 21 21 21 21 22 22 23 23 23 24 24
6 4 8 10 5 7 6 4 9 9 9 11 11 14 11 6 9 9 5 4 4 4 5 4 4 3 3 3 2 0 2 3 3 3 3 3 2 2 1 1 1 2 2 3 3 3 3 3 3 4 5 6 7 8 8 9 10 11 11 11 11 11 12 12 12 13 13 12 12 11 11 11 11 11 12 13 14 15 16 18 19 19 20 20 20 20 20 21 22 22 23 24 24 25 25 25 24
3 5 4 5 4 8 6 7 10 9 10 12 10 13 12 7 8 10 8 5 4 4 6 5 5 5 3 4 3 1 0 1 2 3 3 3 2 1 0 1 2 2 3 3 3 2 2 2 3 4 5 6 7 8 9 10 11 11 12 12 12 12 12 13 13 13 13 13 13 12 11 11 11 11 12 13 14 15 16 18 19 19 20 20 20 20 20 20 21 22 24 25 26 26 27 26 25
11 8 6 5 7 9 9 12 15 11 12 15 12 13 16 11 8 10 11 10 6 5 6 6 6 6 5 5 5 4 2 2 1 1 2 2 2 2 0 1 2 2 3 3 2 2 2 3 4 5 6 7 8 8 9 9 10 11 12 13 13 13 13 14 14 14 14 15 15 14 13 13 13 13 13 14 15 16 17 18 19 19 20 20 21 21 21 21 22 22 23 24 26 27 28 28 27
15 12 11 9 8 10 12 16 18 12 9 16 16 13 17 16 12 12 12 12 10 6 5 6 7 7 7 7 7 6 5 4 4 2 2 2 2 2 2 0 1 2 2 2 2 2 3 4 5 5 6 7 7 8 9 10 11 12 13 14 15 15 15 15 15 15 16 17 17 16 16 15 15 15 16 17 17 18 19 19 20 20 20 20 20 21 21 22 22 23 23 24 25 26 27 28 28
20 13 14 15 15 16 15 20 22 16 12 18 20 16 17 17 14 15 14 13 14 10 7 7 10 10 10 9 9 9 8 7 6 5 4 3 2 2 2 2 1 1 1 2 3 3 4 4 5 5 6 6 7 8 9 10 11 12 13 14 15 16 16 16 16 16 17 18 19 19 19 19 19 19 19 20 20 21 21 22 22 22 22 21 20 20 21 21 21 22 23 24 25 26 27 28 28
25 17 17 20 22 18 16 21 21 18 19 24 24 21 20 16 13 17 18 15 17 17 13 10 11 13 13 11 11 11 10 9 9 8 6 5 3 3 4 3 3 2 2 3 3 4 5 5 6 6 7 7 7 8 9 10 11 12 13 14 15 16 16 16 16 17 18 18 19 20 20 21 21 22 23 23 23 23 23 24 24 24 24 23 22 21 21 21 21 22 23 24 25 26 27 28 28
25 21 24 21 16 14 16 21 21 20 21 24 25 22 22 22 22 22 18 18 21 22 20 16 13 14 15 14 13 12 12 11 11 9 8 7 6 5 5 4 4 4 4 4 4 5 6 7 7 7 8 8 8 9 10 11 12 13 14 15 15 15 16 16 17 18 19 19 20 20 21 22 23 24 24 25 26 26 26 26 27 26 26 26 24 23 23 23 23 24 25 26 26 27 28 29 30
25 23 28 27 20 19 19 22 23 23 22 25 27 23 23 28 29 23 17 19 24 25 24 21 17 14 15 16 14 13 13 13 12 11 11 9 8 7 6 5 5 5 5 5 6 7 8 8 8 8 9 9 10 10 11 12 13 13 14 15 15 15 15 16 17 18 19 20 21 21 22 22 23 24 25 26 27 27 28 28 28 28 28 28 28 26 25 25 25 26 27 28 29 29 29 30 30
26 21 28 33 26 20 17 21 21 23 24 26 28 27 28 30 27 21 19 23 24 24 23 22 20 17 16 17 16 14 13 14 14 14 13 12 11 9 8 8 7 7 7 8 8 9 9 10 10 10 10 10 11 11 12 13 14 15 15 16 16 16 15 15 16 17 19 20 21 22 23 23 24 25 26 26 27 28 28 29 29 29 29 29 30 29 29 28 28 28 29 30 31 31 31 31 32
23 16 19 27 25 19 14 18 16 17 21 21 23 28 32 29 24 21 25 25 21 21 24 24 22 19 17 18 18 15 13 14 16 15 15 14 14 12 10 10 9 9 9 10 10 11 11 12 12 12 12 12 13 13 14 15 15 17 17 17 18 18 17 17 16 17 18 20 21 22 23 24 24 25 26 26 27 28 28 29 29 30 30 31 31 31 31 31 31 31 32 33 33 34 34 33 33
20 21 19 22 27 23 18 18 17 16 19 22 25 29 29 26 25 26 28 25 21 22 24 24 23 20 19 21 21 18 14 14 16 16 16 15 15 15 13 12 11 10 11 12 12 12 13 14 14 14 14 14 15 15 16 17 17 18 18 19 19 19 19 19 19 18 19 20 21 23 24 24 25 25 26 26 27 28 29 30 30 30 31 32 32 33 33 33 34 34 34 35 36 36 36 36 35
22 23 19 24 30 28 27 28 26 23 24 27 27 23 22 25 28 29 27 22 19 21 23 23 23 22 22 23 23 22 15 13 14 15 16 16 17 16 15 15 14 13 13 14 14 14 14 15 16 16 15 15 16 17 19 19 20 20 20 20 20 20 20 20 20 19 20 21 22 23 25 26 26 27 27 27 27 28 29 30 31 32 32 32 33 33 34 35 35 36 37 37 38 38 39 39 38
27 22 12 17 25 25 30 36 36 31 28 29 31 28 27 29 30 26 21 18 18 23 25 24 22 22 23 23 24 23 16 12 13 12 13 14 16 17 17 16 16 16 16 16 17 17 17 18 19 18 18 18 19 20 21 22 23 22 22 22 22 22 22 21 21 20 20 21 22 24 25 26 27 28 28 28 29 29 30 31 32 32 32 33 33 34 35 36 37 37 38 39 40 40 41 40 39
30 25 16 17 21 21 27 35 38 36 35 36 33 31 30 28 27 25 20 19 22 25 23 21 20 22 23 23 24 26 20 15 14 12 11 12 15 18 18 16 17 18 19 19 19 20 21 22 22 23 23 22 22 23 23 24 25 24 23 23 23 24 24 23 23 22 22 22 23 25 26 27 28 28 28 28 29 29 30 31 32 32 33 33 34 35 36 37 38 39 39 40 41 42 42 42 41
33 31 27 26 26 24 24 30 33 30 35 39 33 29 29 24 23 26 23 22 25 25 20 19 21 21 21 20 20 23 21 15 13 13 13 13 15 18 19 17 16 18 20 20 21 22 23 24 25 26 26 25 26 26 25 25 25 25 24 24 24 25 25 25 24 24 24 24 25 26 27 28 28 28 28 28 29 29 30 31 32 32 33 34 35 35 36 38 39 40 40 41 42 43 43 43 42
32 30 31 33 33 28 24 27 28 20 19 23 22 21 21 17 16 20 23 23 23 22 21 23 25 23 24 19 13 14 17 17 16 17 16 15 15 18 20 18 17 18 20 21 21 21 24 26 26 26 27 27 27 27 26 26 26 27 26 24 24 25 25 25 25 25 26 26 27 28 29 29 29 29 28 28 29 29 30 31 32 33 34 35 36 36 37 38 38 39 40 41 42 43 43 43 43
22 23 30 36 35 28 22 23 20 14 12 13 16 17 16 16 16 17 22 23 22 22 25 29 27 26 29 26 19 17 21 23 22 19 16 14 15 17 19 18 17 18 19 20 21 21 22 24 25 25 25 25 25 26 26 26 25 26 26 24 23 25 26 26 26 26 27 27 28 29 30 30 30 29 29 28 29 29 30 31 33 34 35 35 36 36 37 38 38 39 40 41 42 43 43 43 43
22 28 34 32 26 22 20 20 20 19 17 17 17 17 17 19 20 20 23 25 24 25 28 30 29 29 31 33 32 29 28 28 26 22 18 16 15 16 16 17 18 19 20 20 20 20 21 22 23 22 22 22 23 24 25 24 23 23 24 24 23 25 26 26 26 27 27 28 28 29 29 30 30 29 29 28 28 29 30 32 33 34 35 36 36 37 37 38 39 40 40 41 43 43 43 43 43
27 33 37 31 23 22 23 22 24 23 20 19 17 16 17 21 23 23 23 24 24 22 23 26 28 30 31 35 37 33 31 31 28 25 23 18 16 16 16 17 19 20 20 20 19 19 20 21 21 20 19 20 22 24 25 24 23 24 25 25 24 25 26 27 27 26 27 28 28 28 29 30 30 29 28 28 28 29 31 32 34 35 36 36 36 37 38 39 40 41 41 42 43 43 44 44 44
28 33 31 24 23 29 27 24 25 23 20 19 17 15 16 19 21 24 23 22 20 17 17 22 26 28 30 31 32 29 29 31 30 28 24 19 16 16 16 18 19 19 20 20 19 18 19 20 20 20 18 19 22 25 26 25 24 24 24 25 25 25 26 27 27 26 27 28 28 28 28 29 29 29 29 29 30 31 32 34 35 36 37 38 38 38 39 39 40 41 42 43 43 44 44 44 44
28 31 25 19 20 25 24 22 25 26 24 23 19 15 16 19 20 24 25 22 21 19 21 26 27 27 27 27 26 26 25 23 25 26 24 19 16 15 15 17 19 19 19 20 18 18 19 19 20 20 20 20 23 25 27 26 24 23 23 24 25 25 26 26 25 26 28 29 29 29 28 29 29 29 30 31 32 33 33 35 36 38 39 39 40 40 40 40 40 41 42 43 44 44 45 45 45
32 30 25 23 22 19 21 23 24 25 25 26 21 18 21 21 19 23 25 24 24 23 25 27 26 26 29 30 29 29 26 21 20 23 23 21 17 15 16 17 18 19 20 21 20 19 19 20 21 22 22 22 23 25 26 26 24 22 22 25 26 25 25 24 24 26 29 30 30 30 29 28 28 29 30 30 31 32 33 34 36 38 39 39 40 40 40 41 41 41 42 43 44 45 45 46 46
33 29 30 30 24 19 22 25 25 25 25 24 22 21 24 22 19 21 24 24 24 24 26 27 27 30 34 35 32 29 28 26 23 21 21 21 19 17 17 17 18 20 22 23 23 22 21 22 23 25 24 24 24 25 26 25 24 22 23 26 27 26 25 24 25 28 30 31 31 31 30 28 28 28 28 29 30 32 33 35 36 38 39 40 40 41 41 42 42 42 42 43 44 46 46 46 47
Wind_Direction
84 80 77 75 75 76 75 75 73 66 66 70 72 71 73 72 65 70 80 84 90 92 90 85 83 87 91 93 94 94 99 104 97 87 93 98 90 87 93 99 99 96 98 102 107 111 108 106 107 111 111 107 108 109 112 121 139 149 142 130 124 123 119 116 114 112 108 107 103 96 87 76 72 70 70 74 81 91 96 99 96 90 83 76 70 63 59 57 60 95 180 207 122 82 75 73 79
84 80 77 75 75 73 69 67 66 62 65 71 72 71 70 74 74 76 83 90 94 95 92 87 84 83 89 99 101 102 106 105 101 96 99 98 92 94 101 104 101 97 98 102 106 108 107 104 105 111 112 111 113 115 115 120 135 144 133 120 120 120 114 115 113 111 107 102 93 84 78 69 66 65 68 73 80 89 91 88 80 71 63 58 52 48 55 56 63 78 163 204 115 88 87 91 96
78 78 78 78 75 71 67 64 63 60 66 70 70 70 68 72 77 82 85 89 93 95 98 95 85 85 91 99 102 102 103 103 105 104 102 97 99 103 107 109 102 98 98 100 105 107 107 104 102 108 114 119 124 125 120 120 134 140 125 116 118 114 105 104 108 108 103 96 88 82 79 74 70 68 68 66 68 72 72 69 63 57 49 40 30 28 37 41 43 49 73 113 122 120 113 115 120
79 81 83 82 76 71 67 67 68 63 66 67 69 70 67 69 73 80 84 83 89 96 105 105 99 102 99 102 106 100 99 102 103 107 106 99 106 109 111 111 104 101 100 102 106 108 111 111 109 112 116 121 125 122 114 115 127 126 111 108 108 107 107 106 108 106 102 100 96 95 84 75 70 63 57 50 40 41 41 39 40 40 34 20 12 14 20 26 29 35 47 38 125 153 132 129 136
89 89 89 87 83 76 68 70 73 68 65 61 65 71 70 72 72 79 89 89 93 98 106 109 111 111 102 110 112 104 107 105 98 105 108 106 111 112 111 109 105 102 101 103 107 111 115 115 117 119 118 118 120 116 110 112 114 106 97 96 95 99 110 110 108 102 107 112 107 98 84 77 70 62 48 37 28 22 19 19 16 16 19 7 1 8 12 15 19 27 35 25 312 222 156 146 146
93 92 88 84 81 77 71 74 76 69 67 61 61 68 69 71 74 81 91 96 97 100 106 109 111 106 105 112 107 108 116 109 99 102 107 114 116 114 108 105 103 101 100 103 108 115 117 116 119 120 119 119 120 116 113 109 98 89 81 76 72 70 80 83 87 95 102 105 103 96 89 99 106 98 52 31 25 15 16 16 5 2 3 356 354 0 5 5 10 18 22 18 332 252 211 167 158
91 93 86 76 71 70 68 69 71 69 67 62 58 61 64 65 71 80 87 95 95 100 107 110 112 104 109 112 103 113 119 111 107 102 109 123 125 116 108 106 104 100 100 104 110 116 117 117 118 118 115 114 114 110 105 96 82 74 70 67 63 53 39 25 39 59 37 6 21 36 318 288 306 324 332 337 339 342 357 2 356 356 356 350 346 348 354 356 357 2 8 9 4 291 245 206 178
92 92 87 78 69 67 69 67 68 70 67 64 57 52 59 67 69 78 87 89 88 98 105 110 115 105 115 115 110 121 115 112 112 108 116 127 130 120 112 112 111 107 105 108 113 115 117 117 115 113 109 107 105 102 97 88 76 70 74 76 65 34 7 344 354 4 6 356 354 346 326 327 329 335 338 338 338 338 344 347 349 350 350 346 339 341 349 347 345 347 355 3 7 351 281 245 209
83 75 77 78 72 68 70 72 72 70 67 60 50 44 48 62 66 72 77 80 84 93 104 120 123 112 124 117 117 124 115 117 114 114 122 128 134 126 116 116 116 115 114 116 119 118 118 115 109 105 103 103 102 97 90 84 74 69 76 73 44 21 13 357 359 1 7 12 6 351 336 335 334 336 337 338 339 340 344 345 347 346 344 343 338 344 350 345 337 337 344 353 1 0 329 286 254
80 71 68 72 72 70 71 72 70 64 62 60 53 47 39 48 61 69 72 75 87 88 100 117 115 117 127 121 126 126 117 118 113 114 120 125 132 126 119 117 117 117 119 122 122 121 115 111 106 102 102 100 96 92 87 83 74 68 72 62 36 31 35 20 8 4 9 14 6 352 341 338 337 336 335 335 335 336 341 342 343 343 342 342 343 348 351 347 339 337 340 344 352 356 347 318 288
87 76 69 76 77 70 67 65 67 62 57 58 57 56 44 45 54 66 79 81 86 85 91 100 107 122 121 118 129 123 115 113 108 111 114 119 124 119 116 113 113 114 119 124 123 121 117 116 112 105 104 100 94 92 88 82 74 68 69 58 36 38 37 17 7 8 12 9 359 350 342 338 338 338 334 332 333 336 339 339 338 339 340 341 345 348 348 346 341 339 341 343 346 347 345 329 307
115 83 62 68 71 66 59 52 59 64 57 52 50 61 61 58 65 66 73 80 90 92 93 103 121 126 112 117 125 118 113 112 108 109 110 113 114 112 111 109 109 111 115 120 119 122 122 120 113 106 103 97 92 89 83 76 70 65 59 46 35 34 27 13 10 14 19 13 2 355 348 343 341 340 335 329 330 335 338 339 338 337 336 336 340 344 342 339 338 336 337 339 339 339 334 320 308
112 76 57 44 37 37 40 34 38 51 58 57 50 58 64 69 80 82 81 83 91 94 92 97 114 118 113 118 120 113 109 108 107 107 108 110 111 112 110 108 109 112 116 118 118 119 119 118 113 108 102 90 82 79 74 70 67 61 49 41 40 36 30 22 20 24 26 18 9 4 359 355 346 339 334 327 327 330 332 336 336 334 335 336 337 341 340 336 333 328 326 326 324 325 321 310 302
72 62 55 37 20 11 4 8 18 35 48 61 60 55 59 65 76 83 91 88 88 92 91 90 93 107 110 110 111 108 105 104 104 106 108 109 111 113 110 110 113 117 119 121 122 122 122 122 123 122 111 92 84 79 73 74 72 62 54 51 51 44 37 30 25 26 22 17 14 12 9 3 351 344 338 329 326 327 324 324 327 330 334 335 338 345 346 342 336 328 324 319 312 311 309 307 302
50 55 51 40 19 356 347 358 9 15 33 57 65 57 60 64 75 86 93 90 94 96 92 89 87 95 104 105 105 104 104 104 104 107 108 107 108 107 106 108 111 114 115 118 120 121 123 123 126 124 115 103 93 85 78 74 68 66 64 57 52 41 34 31 24 22 19 19 21 18 16 10 0 352 347 336 326 325 319 316 323 329 331 331 335 342 345 344 340 336 334 326 315 310 302 295 291
66 61 48 35 10 344 335 353 9 356 21 55 55 47 58 64 74 84 91 95 102 97 89 86 82 87 96 99 101 101 102 102 104 107 106 103 103 102 101 102 105 107 108 110 110 110 114 115 117 114 111 109 100 94 84 68 66 76 68 54 49 39 33 33 27 21 19 20 21 17 14 12 9 1 352 344 334 329 319 314 322 327 328 325 325 326 329 331 329 331 330 323 317 315 307 296 288
77 72 66 56 349 323 312 326 346 335 354 53 47 44 56 64 80 83 89 99 106 99 90 93 89 86 90 95 96 96 97 97 101 104 102 99 100 100 96 96 101 103 103 104 105 105 107 111 114 111 110 105 98 94 81 65 75 84 70 57 49 41 36 34 26 22 21 18 11 3 359 0 7 6 354 348 343 336 322 311 312 318 320 318 316 312 312 315 315 318 318 315 313 313 312 307 301
64 62 71 74 11 296 298 308 302 291 307 306 352 37 53 55 74 81 86 96 102 100 87 93 93 84 87 91 90 88 89 89 93 97 96 94 98 97 93 96 96 96 99 100 103 103 101 103 105 104 101 96 94 89 76 72 77 76 69 61 50 44 43 39 30 26 23 14 7 356 351 352 355 356 350 345 337 331 319 303 296 300 309 311 308 304 305 309 310 312 313 311 309 308 307 306 306
61 51 52 70 213 273 285 289 281 274 311 308 313 6 28 30 48 58 63 80 95 110 100 99 93 81 87 89 85 84 85 85 86 88 88 90 95 93 91 97 93 88 92 96 99 99 96 93 92 93 93 91 90 86 79 75 70 64 65 61 51 47 46 42 32 24 15 7 4 355 352 355 350 348 348 339 326 321 315 304 299 301 309 312 308 303 305 307 306 305 306 306 305 304 303 301 301
67 61 65 150 222 274 276 265 322 77 303 299 288 329 18 11 0 24 20 24 308 166 124 124 112 103 99 91 87 84 84 86 86 83 81 84 90 90 91 95 90 86 91 96 100 99 96 92 89 88 88 85 85 84 78 72 65 59 58 56 47 40 36 33 19 13 7 359 358 354 356 1 352 346 344 334 320 314 309 303 302 304 309 311 305 300 301 303 303 302 302 302 301 301 300 297 298
74 84 147 195 238 284 264 231 236 326 286 295 303 6 34 15 320 358 348 314 279 236 169 171 170 153 120 96 91 88 84 83 82 80 79 79 83 86 90 93 91 92 95 96 97 96 96 95 91 88 85 82 81 78 68 62 63 56 49 46 37 28 25 22 12 9 4 357 357 353 355 359 351 348 342 332 323 316 313 314 314 314 313 311 305 299 298 300 301 301 303 303 300 298 297 295 295
78 143 188 203 228 267 268 229 236 298 307 294 323 32 32 8 342 350 319 268 251 242 222 208 202 184 132 107 95 89 85 81 78 79 78 77 81 86 91 96 98 100 100 99 97 93 94 95 93 89 85 81 76 69 60 55 56 54 47 42 36 29 26 22 17 13 8 2 1 355 353 353 346 346 340 330 327 324 324 324 324 322 319 317 312 304 300 300 301 302 305 306 304 300 297 296 297
268 258 236 228 247 268 273 242 266 297 311 312 340 33 26 4 346 324 304 266 230 236 233 215 203 200 141 116 103 93 89 88 86 84 82 82 84 90 97 103 108 110 111 109 107 100 91 88 83 81 80 78 74 66 57 51 51 53 49 45 41 35 31 26 22 18 13 11 10 6 2 358 349 346 341 333 329 326 324 323 324 323 319 316 312 307 304 302 302 304 306 308 308 304 297 295 299
224 246 261 244 248 266 271 249 281 276 241 314 334 23 47 355 324 309 283 256 205 240 239 212 187 199 163 122 112 107 106 100 98 95 92 93 93 98 103 110 116 119 122 117 112 104 92 81 72 69 68 66 68 63 55 47 45 47 45 44 41 38 35 27 22 20 16 16 19 15 8 4 356 350 348 342 335 331 327 324 324 322 318 316 311 308 307 305 304 303 302 304 307 307 300 295 298
257 230 252 256 241 260 281 218 203 209 199 241 343 21 62 6 332 359 299 268 101 219 243 195 146 176 139 123 119 115 121 117 107 103 105 105 103 107 112 118 123 124 125 116 106 96 88 77 61 55 52 51 56 56 52 46 39 39 37 37 36 35 35 30 25 22 19 18 21 20 12 5 357 351 354 352 345 342 339 336 333 330 328 329 325 317 310 305 302 300 299 298 299 299 298 298 299
263 248 271 285 259 241 203 189 190 193 193 66 18 15 61 71 30 17 349 8 121 174 199 119 108 85 63 92 122 118 128 132 129 121 116 113 111 114 117 120 122 121 121 112 92 83 75 56 43 47 52 49 50 48 47 43 37 36 34 33 33 29 28 28 24 20 20 18 19 20 13 6 356 348 353 354 347 345 344 342 340 340 340 339 335 329 320 311 305 304 303 302 297 292 290 292 296
246 266 275 275 263 197 176 190 209 187 100 341 15 18 29 69 85 72 34 36 165 151 96 95 95 77 53 58 98 111 123 133 141 147 143 135 122 121 123 122 119 112 109 100 65 50 47 31 22 38 54 55 54 51 47 43 36 33 31 31 33 29 27 26 22 18 17 15 13 13 8 4 356 347 348 349 345 343 343 342 342 343 343 340 336 332 326 319 316 315 314 313 308 298 291 288 291
243 271 264 258 245 164 165 192 239 197 212 271 293 298 237 180 94 95 71 55 155 144 78 82 90 73 60 61 70 80 86 103 119 154 180 192 186 213 156 133 137 98 83 78 58 35 26 27 22 29 45 49 50 48 45 42 38 33 28 26 29 29 27 25 21 17 15 14 11 7 3 1 356 349 347 348 346 345 344 343 344 345 345 344 343 339 333 327 323 323 324 323 323 317 307 299 297
251 261 246 238 157 164 224 317 318 216 224 235 234 223 212 226 53 90 79 57 37 69 78 71 83 80 77 73 68 74 75 85 97 128 193 205 206 248 262 151 124 104 83 67 61 48 34 33 35 36 43 46 43 41 38 36 33 31 28 25 26 27 26 22 17 16 15 13 10 5 -0 358 356 352 350 351 350 348 346 345 347 347 346 346 347 346 343 338 335 333 332 329 327 327 323 314 306
236 247 221 207 156 180 235 280 286 303 325 308 302 163 153 312 323 39 66 51 15 0 47 56 72 81 84 80 72 81 86 96 106 119 153 180 176 187 180 112 92 88 83 65 50 39 34 35 39 41 43 44 40 35 31 29 27 26 26 24 25 26 24 20 15 14 15 13 8 5 1 356 355 355 354 354 353 351 350 348 348 348 345 345 346 346 345 344 344 343 343 339 334 332 329 325 318
226 240 190 175 168 192 233 242 231 285 319 327 324 5 67 24 357 343 341 4 353 353 350 353 53 71 74 79 77 86 89 100 116 124 137 148 147 142 130 116 99 79 69 46 28 15 18 26 32 37 40 37 31 25 20 20 19 19 20 21 24 25 22 18 14 12 14 13 9 7 5 358 355 357 355 355 354 353 351 349 348 348 345 344 343 342 342 342 344 344 345 346 344 341 337 333 330
234 243 189 164 194 207 229 236 199 238 290 314 310 326 50 19 356 359 335 314 329 347 334 311 330 59 64 76 77 81 83 89 105 118 130 136 136 130 125 113 98 76 42 29 20 11 13 24 29 32 32 24 17 12 9 11 11 13 18 19 20 22 20 17 14 12 12 11 10 9 6 0 357 357 355 355 355 353 351 349 347 347 345 343 341 340 339 339 339 340 340 342 342 340 337 333 332
233 232 193 171 209 205 195 224 228 222 255 292 286 299 37 172 14 30 350 323 325 333 318 286 266 274 55 83 78 75 78 79 82 86 104 119 120 115 113 103 84 61 40 26 14 11 21 30 31 30 25 16 10 6 4 4 4 8 15 17 15 15 15 13 13 14 12 9 8 8 5 2 0 357 356 355 354 353 351 348 346 345 343 341 340 339 338 338 336 335 335 335 335 333 331 330 329
220 210 188 181 204 199 188 228 253 250 225 252 265 280 75 149 11 34 350 302 295 308 307 306 285 263 271 89 85 85 84 79 75 68 78 96 95 103 97 83 63 43 31 24 15 12 23 31 33 33 28 20 12 7 2 357 356 3 9 10 9 8 8 5 7 11 12 7 4 3 3 3 2 358 356 355 354 353 350 348 345 343 341 339 338 337 337 336 334 333 332 331 331 329 327 326 325
210 195 203 197 196 204 201 226 248 254 245 235 254 278 280 294 314 321 321 282 264 274 274 285 292 244 232 254 50 102 94 86 88 79 82 90 85 100 99 66 42 27 15 14 17 17 24 36 40 38 32 24 14 6 0 355 355 358 358 359 360 359 359 357 358 2 5 5 1 360 -0 360 359 357 355 354 353 352 349 347 344 342 340 337 336 335 335 335 334 333 331 330 329 328 326 325 323
199 184 228 203 198 241 226 250 263 261 258 250 257 270 272 290 297 294 295 263 263 284 274 274 282 262 231 246 269 128 102 99 107 103 96 92 90 100 100 44 5 2 357 359 14 23 29 39 36 26 20 16 9 2 0 359 357 355 352 351 352 351 349 348 350 354 356 359 358 357 356 354 353 352 350 351 351 350 348 345 343 341 338 336 334 334 334 334 334 333 332 331 329 328 326 325 323
294 13 294 224 308 298 291 305 281 274 277 272 268 266 270 281 281 283 286 267 258 276 279 281 276 277 274 252 259 276 163 120 122 126 115 101 104 103 43 330 344 344 341 345 0 21 31 38 21 5 3 4 4 3 3 2 359 355 352 349 348 348 343 339 341 345 348 352 354 353 352 349 346 344 345 347 348 347 346 344 342 339 336 334 332 332 333 333 332 332 331 330 330 329 328 326 326
280 332 334 297 314 308 308 299 287 289 282 280 290 284 281 283 276 280 285 280 268 239 254 274 270 271 277 260 256 267 265 266 242 155 146 147 143 133 122 334 341 338 338 339 357 30 39 42 28 10 4 4 4 4 3 2 358 356 354 351 349 348 344 340 338 338 342 347 349 349 348 345 342 340 341 343 345 345 344 343 341 338 335 332 330 330 331 331 331 331 330 330 330 329 328 328 328
234 272 280 279 297 295 287 278 284 298 284 288 298 283 277 282 284 284 282 284 281 255 241 263 269 263 262 264 266 266 264 269 272 264 234 207 189 168 156 157 318 332 346 349 2 24 30 30 28 17 8 7 5 4 2 1 359 358 357 355 351 350 348 343 340 337 338 342 344 344 343 341 339 339 340 341 342 342 341 341 340 339 337 333 330 328 328 328 328 329 330 330 330 329 328 328 328
198 221 240 252 272 281 272 262 275 291 289 298 300 277 268 273 283 293 292 292 292 286 272 271 277 267 254 256 265 265 260 258 265 270 265 249 227 203 189 200 243 285 321 334 345 356 8 9 10 9 3 5 5 3 3 0 360 359 358 357 355 352 351 347 344 340 338 339 339 339 339 338 338 338 339 339 339 339 339 339 339 338 337 334 329 325 324 324 325 326 327 328 328 328 328 327 328
182 191 207 238 263 269 260 251 262 279 284 294 294 280 273 273 285 297 296 298 302 297 283 273 277 273 267 265 263 263 260 256 261 264 269 269 252 229 216 216 228 244 269 293 320 330 340 345 348 352 349 349 353 355 357 356 356 356 354 355 355 352 351 350 347 342 339 338 336 336 336 335 335 336 336 336 335 335 335 335 335 335 335 333 330 325 321 321 322 322 324 325 326 327 327 326 327
177 197 202 216 235 232 242 246 249 265 279 289 286 277 282 290 293 292 290 298 302 295 282 276 276 271 276 279 272 268 267 266 267 269 277 278 270 257 241 232 236 242 258 279 302 315 321 325 329 333 331 333 338 341 344 344 345 347 346 346 347 348 348 348 347 343 341 339 337 335 334 333 333 333 333 333 332 332 332 332 332 331 331 331 329 326 322 320 320 320 322 323 324 325 325 325 326
183 205 199 195 196 192 216 240 248 262 280 290 287 285 290 294 294 291 290 295 295 290 287 289 288 275 274 281 279 274 270 270 272 275 282 282 279 278 271 261 252 252 260 270 285 297 303 305 309 313 317 321 325 327 329 331 332 334 333 332 333 337 339 340 341 340 339 338 336 335 333 332 331 330 329 329 329 329 328 328 327 327 327 327 327 326 323 321 320 320 320 321 322 323 322 323 324
194 204 192 190 189 183 216 250 257 269 279 281 284 289 290 288 289 292 294 293 290 290 297 300 294 279 268 269 271 269 270 274 274 276 280 280 281 282 282 279 271 268 268 268 275 282 287 291 294 299 304 308 311 315 318 319 320 319 321 321 322 324 326 329 331 332 333 332 332 331 330 330 328 327 326 325 325 325 324 323 322 322 323 323 324 323 322 320 319 319 320 320 320 321 321 321 321
202 176 170 189 190 182 230 261 259 270 274 267 271 280 282 282 284 287 286 286 290 299 303 298 290 281 268 262 259 253 261 275 276 275 274 274 276 277 279 281 278 277 274 270 273 275 278 281 283 289 294 299 303 307 309 309 310 311 314 315 315 317 318 322 325 326 327 326 325 324 323 323 323 322 322 321 321 320 320 320 319 319 319 320 320 320 319 319 318 318 319 319 320 319 319 319 319
198 155 158 197 198 192 216 228 222 233 238 239 256 271 275 276 277 276 275 279 292 300 300 294 289 285 275 269 264 255 257 269 270 269 269 269 272 274 276 279 277 277 277 274 274 274 276 277 278 282 287 292 297 300 301 303 305 307 309 311 312 315 316 318 320 322 322 321 320 319 318 318 317 317 317 317 318 318 317 317 318 317 317 317 316 316 316 316 317 316 317 318 318 318 318 317 317
183 169 178 204 204 202 208 205 209 222 221 224 235 247 259 263 265 264 266 279 291 291 294 295 289 283 276 275 276 271 265 258 253 259 268 270 272 274 275 276 275 273 272 273 274 275 277 278 278 280 282 286 291 295 298 300 302 304 306 309 311 312 311 311 313 315 317 318 318 317 316 315 314 314 314 315 315 316 316 316 316 316 315 315 315 314 314 314 315 315 315 316 316 317 317 316 315
182 186 199 203 199 207 211 203 205 213 214 218 221 222 233 248 261 268 274 285 288 287 293 295 286 278 276 279 283 280 273 257 251 260 271 274 274 274 272 271 272 271 269 270 273 274 276 277 278 279 281 284 288 291 295 296 298 300 302 305 306 306 305 305 307 309 312 314 315 315 315 314 313 312 312 313 314 314 315 315 315 315 314 314 314 313 313 313 313 313 314 314 314 314 314 314 314
184 193 204 202 203 219 222 211 209 213 214 216 219 228 238 251 270 282 289 290 285 286 294 296 286 278 276 281 283 278 272 263 260 266 274 277 278 276 272 268 267 269 268 268 270 272 274 275 277 279 281 284 287 289 292 295 296 296 298 299 300 300 300 302 304 306 309 312 314 315 314 313 312 311 311 311 312 312 313 314 314 314 314 314 314 313 313 313 313 313 313 312 312 312 312 313 313
189 194 197 202 215 224 223 221 225 234 232 224 224 238 248 257 269 271 274 279 280 282 289 288 282 281 285 289 283 275 273 272 272 276 277 279 278 276 275 273 271 271 271 270 270 271 272 274 276 279 281 284 286 287 289 292 293 293 294 295 296 296 297 298 301 305 309 312 313 313 313 312 311 310 310 310 310 311 312 313 314 314 314 314 314 314 313 313 313 312 312 311 310 311 312 312 312
199 198 194 197 208 216 223 229 235 251 249 231 235 250 256 264 268 261 262 267 268 268 273 273 272 281 291 291 273 262 272 281 283 283 283 282 280 276 275 277 278 275 273 274 273 271 273 276 279 282 285 286 286 285 287 289 290 289 290 292 294 294 294 296 299 303 307 309 311 312 313 312 311 310 310 309 310 310 311 313 313 314 314 314 314 313 313 312 312 311 310 310 310 311 312 312 312
220 217 208 200 199 207 221 229 236 261 267 246 256 270 278 282 275 264 265 268 267 264 268 273 276 284 291 292 284 273 277 283 285 285 284 282 281 277 273 276 278 274 273 274 275 275 277 281 285 288 288 287 285 286 288 291 290 288 288 291 293 293 293 296 299 301 305 308 312 313 312 311 310 310 310 309 310 311 312 313 313 313 313 313 312 312 312 312 311 311 311 310 311 312 312 313 313
226 228 225 219 208 205 216 235 257 270 257 244 248 254 262 265 262 262 267 274 277 275 275 278 280 282 287 291 293 292 290 288 286 286 288 285 281 276 272 274 277 276 276 278 278 279 281 284 287 289 289 286 285 288 291 294 295 292 290 290 291 293 294 296 299 302 307 310 312 312 311 310 310 310 309 310 310 311 312 312 312 312 312 312 312 311 312 312 312 312 312 312 312 312 313 313 313
216 225 231 239 233 213 208 230 259 265 252 246 245 242 247 251 254 259 264 272 276 279 284 284 282 283 286 290 294 297 298 294 291 291 293 291 279 271 265 266 272 276 278 280 280 282 283 285 286 288 286 284 286 290 293 295 296 294 292 291 291 293 294 296 299 303 306 309 311 312 312 311 310 309 309 309 310 311 311 311 311 312 312 312 312 312 313 313 314 314 313 313 313 313 313 313 313
223 227 232 242 227 209 206 219 237 242 244 250 249 252 259 255 255 259 260 267 274 278 278 274 274 279 286 290 292 296 298 295 293 294 294 289 276 268 262 260 267 275 278 280 281 282 283 283 284 286 287 286 288 292 294 295 295 295 295 294 293 294 295 296 299 302 305 309 312 314 314 312 310 310 309 310 311 312 312 312 312 313 313 314 314 314 314 314 314 314 314 313 313 313 313 314 314
219 219 222 229 213 204 213 226 233 235 241 246 241 240 248 248 253 260 261 265 269 269 263 262 268 275 280 283 286 292 297 295 292 290 288 283 277 274 267 263 269 276 279 282 281 280 281 282 285 288 291 292 291 292 293 295 298 298 297 297 297 297 297 298 301 305 309 312 314 315 315 312 311 311 311 312 312 312 313 313 314 315 315 315 315 314 314 315 314 314 314 314 314 314 314 315 315
209 204 201 217 224 218 220 230 239 241 245 249 243 240 246 247 251 255 256 258 260 261 263 267 275 281 283 286 289 292 297 300 295 290 287 282 276 274 270 269 275 280 283 284 284 283 283 285 288 291 294 295 292 291 292 296 301 301 298 297 299 301 300 299 304 310 313 313 314 315 314 312 311 311 312 312 312 313 314 315 315 315 315 314 314 315 316 316 315 315 315 315 315 315 315 315 315
219 203 189 200 217 227 226 231 238 238 244 248 238 240 254 257 252 246 246 252 259 266 273 277 282 284 285 288 290 293 298 303 299 292 289 285 277 274 273 273 278 283 286 287 287 289 289 289 290 292 295 295 293 292 294 298 302 299 296 297 301 305 304 303 310 316 316 315 315 314 312 311 310 310 311 312 314 316 318 319 318 317 316 316 317 317 317 316 315 315 315 315 316 316 316 316 316